METAR AND TAF INFORMATION
METAR FOR HEGN
ADDS - METARS form results

(0534 UTC 21 November 2019)
Data provider http://aviationweather.gov/metar/data/
 
Forecast for: HEGN (HURGUADA , EG)
Text: TAF HEGN 210500Z 2106/2212 30010KT CAVOK
Forecast period: 0600 UTC 21 November 2019 to 1200 UTC 22 November 2019
Forecast type: FROM: standard forecast or significant change
Winds: from the WNW (300 degrees) at 12 MPH (10 knots; 5.1 m/s)
Visibility: 6 or more miles 10+ km)
Ceiling: unknown
Clouds: missing
Weather: NSW  (no significant weather)

 AIRPORT MAP

 RUNWAY INFORMATION

 AIRPORT FREQUENCIES
Type APP Name RADAR Frequency 123.4 MHZ
Type GND Name GND Frequency 121.9 MHZ
Type RDO Name RDO Frequency 585.9 MHZ
Type TWR Name TWR Frequency 119.6 MHZ

 AIRPORT NEAR NAVIGATION AIDS
Type VOR-DME Name Hurghada Frequency 116500 KHZ



2018 Air Astana Virtual Airline